TimeCET,TemperatureF,Dew PointF,Humidity,Sea Level PressureIn,VisibilityMPH,Wind Direction,Wind SpeedMPH,Gust SpeedMPH,PrecipitationIn,Events,Conditions,WindDirDegrees,DateUTC
12:55 AM,51.8,51.8,100,30.04,-9999.0,North,-9999.0,-,N/A,,Clear,0,2014-02-06 23:55:00
1:00 AM,51,51,99,30.05,12,North,2.3,,,,,0,2014-02-07 00:00:00
1:55 AM,51.8,50.0,94,30.04,-9999.0,North,-9999.0,-,N/A,,Clear,0,2014-02-07 00:55:00
2:55 AM,50.0,48.2,94,30.06,-9999.0,North,-9999.0,-,N/A,,Clear,0,2014-02-07 01:55:00
3:55 AM,51.8,48.2,88,30.04,-9999.0,North,-9999.0,-,N/A,,Clear,0,2014-02-07 02:55:00
4:00 AM,52,48,83,30.05,12,North,2.3,,,,,0,2014-02-07 03:00:00
4:55 AM,51.8,48.2,88,30.06,-9999.0,North,-9999.0,-,N/A,,Clear,0,2014-02-07 03:55:00
5:55 AM,51.8,46.4,82,30.04,-9999.0,North,-9999.0,-,N/A,,Clear,0,2014-02-07 04:55:00
6:55 AM,51.8,48.2,88,30.04,-9999.0,North,-9999.0,-,N/A,,Clear,0,2014-02-07 05:55:00
7:00 AM,52,48,83,30.05,12,Calm,Calm,,,,,,2014-02-07 06:00:00
7:55 AM,51.8,50.0,94,30.06,-9999.0,North,-9999.0,-,N/A,,Clear,0,2014-02-07 06:55:00
8:55 AM,53.6,51.8,94,30.04,-9999.0,North,-9999.0,-,N/A,,Partly Cloudy,0,2014-02-07 07:55:00
9:55 AM,53.6,51.8,94,30.06,-9999.0,North,-9999.0,-,N/A,,Partly Cloudy,0,2014-02-07 08:55:00
10:00 AM,54,52,91,30.08,12,North,2.3,,,,Scattered Clouds,0,2014-02-07 09:00:00
10:55 AM,55.4,51.8,88,30.06,-9999.0,North,-9999.0,-,N/A,,Clear,0,2014-02-07 09:55:00
11:55 AM,57.2,51.8,82,30.06,-9999.0,North,-9999.0,-,N/A,,Clear,0,2014-02-07 10:55:00
12:55 PM,59.0,55.4,88,30.06,-9999.0,North,-9999.0,-,N/A,,Clear,0,2014-02-07 11:55:00
1:00 PM,59,54,80,30.08,12,,4.6,,,,Partly Cloudy,,2014-02-07 12:00:00
1:55 PM,59.0,53.6,82,30.06,-9999.0,North,-9999.0,-,N/A,,Clear,0,2014-02-07 12:55:00
2:55 PM,62.6,53.6,72,30.04,-9999.0,North,-9999.0,-,N/A,,Clear,0,2014-02-07 13:55:00
3:55 PM,62.6,53.6,72,30.04,-9999.0,North,-9999.0,-,N/A,,Clear,0,2014-02-07 14:55:00
4:00 PM,63,53,60,30.04,12,,4.6,,,,Scattered Clouds,,2014-02-07 15:00:00
4:55 PM,60.8,53.6,77,30.04,-9999.0,North,-9999.0,-,N/A,,Clear,0,2014-02-07 15:55:00
5:55 PM,55.4,51.8,88,30.04,-9999.0,North,-9999.0,-,N/A,,Clear,0,2014-02-07 16:55:00
6:55 PM,53.6,51.8,94,30.01,-9999.0,North,-9999.0,-,N/A,,Clear,0,2014-02-07 17:55:00
7:00 PM,54,51,88,30.03,12,,9.2,,,,Partly Cloudy,,2014-02-07 18:00:00
7:55 PM,53.6,51.8,94,30.01,-9999.0,North,-9999.0,-,N/A,,Clear,0,2014-02-07 18:55:00
8:55 PM,53.6,51.8,94,30.01,-9999.0,North,-9999.0,-,N/A,,Clear,0,2014-02-07 19:55:00
9:55 PM,53.6,51.8,94,30.01,-9999.0,North,-9999.0,-,N/A,,Clear,0,2014-02-07 20:55:00
10:00 PM,54,51,86,30.04,12,,5.8,,,,Partly Cloudy,,2014-02-07 21:00:00
10:55 PM,55.4,48.2,77,30.01,-9999.0,North,-9999.0,-,N/A,,Clear,0,2014-02-07 21:55:00
11:55 PM,55.4,46.4,72,30.01,-9999.0,North,-9999.0,-,N/A,,Clear,0,2014-02-07 22:55:00